Weather History for Crestview, FL

Change the Weather History Date:

Monday, December 23, 2013

  Actual Average Record
Temperature  
Mean Temperature 48 °F -  
Max Temperature 55 °F - - ()
Min Temperature 40 °F - - ()
Degree Days  
Heating Degree Days 17    
Moisture  
Dew Point 50 °F    
Average Humidity 92    
Maximum Humidity 100    
Minimum Humidity 65    
Precipitation  
Precipitation 1.49 in - - ()
Sea Level Pressure  
Sea Level Pressure 30.17 in    
Wind  
Wind Speed 7 mph (North)    
Max Wind Speed 18 mph    
Max Gust Speed 25 mph    
Visibility 8 miles    
Events Rain , Thunderstorm    
T = Trace of Precipitation, MM = Missing Value Source: NWS Daily Summary

Daily Weather History Graph

Daily Weather History Graph

Search for Another Location

Airport:

Trip Planner

Search our weather history database for the weather conditions in past years. The results will help you decide how hot, cold, wet, or windy it might be!

Date:

Astronomy

Dec. 23, 2013 Rise Set
Actual Time 6:40 AM CST 4:50 PM CST
Civil Twilight 6:13 AM CST 5:16 PM CST
Nautical Twilight 5:43 AM CST 5:47 PM CST
Astronomical Twilight 5:14 AM CST 6:16 PM CST
Moon 10:36 PM CST (12/23) 10:26 AM CST (12/23)
Length of Visible Light 11h 03m
Length of Day
10h 09m
Waning Gibbous, 68% of the Moon is Illuminated
Dec 23
Waning Gibbous
Dec 25
Last Quarter
Jan 1
New
Jan 7
First Quarter
Jan 15
Full

Hourly Weather History & Observations

Time (CST) Temp. Windchill Dew Point Humidity Pressure Visibility Wind Dir Wind Speed Gust Speed Precip Events Conditions
12:08 AM 55.4 °F - 53.6 °F 94% 30.07 in 2.0 mi North 10.4 mph - N/A Rain Heavy Rain
12:18 AM 53.6 °F - 53.6 °F 100% 30.08 in 3.0 mi NNW 11.5 mph - N/A Rain Rain
12:33 AM 55.4 °F - 53.6 °F 94% 30.07 in 9.0 mi North 11.5 mph - N/A Rain Light Rain
12:49 AM 55.4 °F - 53.6 °F 94% 30.08 in 10.0 mi NNE 5.8 mph - N/A   Scattered Clouds
12:56 AM 55.4 °F - 53.6 °F 94% 30.10 in 10.0 mi North 5.8 mph - N/A   Scattered Clouds
12:58 AM 54.5 °F - 53.8 °F 97% 30.11 in 10.0 mi North 5.8 mph - 0.33 in   Scattered Clouds
12:59 AM 55.4 °F - 53.6 °F 94% 30.09 in 8.0 mi North 5.8 mph - N/A Rain Light Rain
1:14 AM 53.6 °F - 53.6 °F 100% 30.08 in 2.5 mi North 6.9 mph - N/A Rain Heavy Rain
1:24 AM 53.6 °F - 53.6 °F 100% 30.09 in 4.0 mi NNE 5.8 mph - N/A Rain Rain
1:34 AM 53.6 °F - 53.6 °F 100% 30.09 in 2.5 mi NE 3.5 mph - N/A Rain Heavy Rain
1:39 AM 53.6 °F - 53.6 °F 100% 30.10 in 2.0 mi Variable 1.2 mph - N/A Rain Heavy Rain
1:44 AM 53.6 °F - 53.6 °F 100% 30.09 in 1.8 mi North 6.9 mph - N/A Rain Heavy Rain
1:53 AM 53.6 °F - 53.6 °F 100% 30.10 in 2.5 mi NNW 4.6 mph - N/A Rain Heavy Rain
1:58 AM 54.1 °F - 53.8 °F 99% 30.12 in 2.5 mi North 5.8 mph - 0.52 in Rain Heavy Rain
2:03 AM 53.6 °F - 53.6 °F 100% 30.10 in 3.0 mi North 8.1 mph - N/A Rain Heavy Rain
2:38 AM 53.6 °F - 53.6 °F 100% 30.10 in 10.0 mi NNE 5.8 mph - N/A   Light Drizzle
2:39 AM 53.6 °F - 53.6 °F 100% 30.10 in 10.0 mi NNE 5.8 mph - N/A   Overcast
2:54 AM 53.6 °F - 53.6 °F 100% 30.13 in 10.0 mi North 2.3 mph - N/A Rain Light Rain
2:58 AM 53.6 °F - 53.6 °F 100% 30.14 in 7.0 mi North 1.2 mph - 0.13 in Rain Light Rain
2:59 AM 53.6 °F - 53.6 °F 100% 30.13 in 4.0 mi Calm Calm - N/A Rain , Thunderstorm Thunderstorms and Rain
3:04 AM 53.6 °F - 53.6 °F 100% 30.14 in 2.0 mi Calm Calm - N/A Rain , Thunderstorm Heavy Thunderstorms and Rain
3:09 AM 53.6 °F - 53.6 °F 100% 30.13 in 1.8 mi North 3.5 mph - N/A Rain , Thunderstorm Heavy Thunderstorms and Rain
3:13 AM 53.6 °F - 53.6 °F 100% 30.10 in 2.0 mi NE 5.8 mph - N/A Rain Heavy Rain
3:18 AM 53.6 °F - 53.6 °F 100% 30.13 in 2.0 mi NNE 2.3 mph - N/A Rain Rain
3:23 AM 53.6 °F - 53.6 °F 100% 30.13 in 2.5 mi Variable 1.2 mph - N/A Rain Heavy Rain
3:28 AM 53.6 °F - 53.6 °F 100% 30.14 in 3.0 mi Calm Calm - N/A Rain Rain
3:58 AM 54.0 °F - 53.8 °F 99% 30.11 in 8.0 mi North 4.6 mph - 0.33 in Rain Light Rain
4:08 AM 53.6 °F - 53.6 °F 100% 30.11 in 10.0 mi North 6.9 mph - N/A Rain Light Rain
4:23 AM 53.6 °F - 53.6 °F 100% 30.11 in 5.0 mi NNE 3.5 mph - N/A Rain Light Rain
4:28 AM 53.6 °F - 53.6 °F 100% 30.11 in 6.0 mi ENE 2.3 mph - N/A Rain Light Rain
4:38 AM 53.6 °F - 53.6 °F 100% 30.12 in 2.5 mi NE 2.3 mph - N/A Rain Heavy Rain
4:43 AM 53.6 °F - 53.6 °F 100% 30.12 in 2.5 mi North 2.3 mph - N/A Rain Rain
4:48 AM 53.6 °F - 53.6 °F 100% 30.13 in 3.0 mi North 3.5 mph - N/A Rain Rain
4:58 AM 54.5 °F - 52.2 °F 92% 30.13 in 4.0 mi NNW 4.6 mph - 0.17 in Rain Rain
5:08 AM 55.4 °F - 53.6 °F 94% 30.13 in 10.0 mi NNW 3.5 mph - N/A Rain Light Rain
5:19 AM 55.4 °F - 53.6 °F 94% 30.13 in 10.0 mi NNW 6.9 mph - N/A   Mostly Cloudy
5:24 AM 55.4 °F - 53.6 °F 94% 30.13 in 10.0 mi NW 8.1 mph - N/A   Mostly Cloudy
5:25 AM 55.4 °F - 53.6 °F 94% 30.13 in 10.0 mi NW 8.1 mph - N/A   Mostly Cloudy
5:58 AM 54.5 °F - 54.1 °F 99% 30.16 in 10.0 mi NNW 4.6 mph - 0.01 in   Overcast
6:03 AM 53.6 °F - 53.6 °F 100% 30.15 in 10.0 mi North 4.6 mph - N/A   Overcast
6:38 AM 55.4 °F - 53.6 °F 94% 30.16 in 10.0 mi North 4.6 mph - N/A   Overcast
6:58 AM 55.4 °F - 53.6 °F 94% 30.17 in 10.0 mi North 5.8 mph - N/A   Overcast
7:13 AM 55.4 °F - 53.6 °F 94% 30.16 in 10.0 mi North 6.9 mph - N/A   Mostly Cloudy
7:23 AM 55.4 °F - 53.6 °F 94% 30.16 in 10.0 mi North 6.9 mph - N/A   Mostly Cloudy
7:38 AM 55.4 °F - 53.6 °F 94% 30.17 in 10.0 mi North 5.8 mph - N/A   Overcast
7:58 AM 54.7 °F - 54.3 °F 99% 30.20 in 10.0 mi NNW 5.8 mph - N/A   Overcast
8:08 AM 55.4 °F - 55.4 °F 100% 30.19 in 10.0 mi North 4.6 mph - N/A   Overcast
8:21 AM 55.4 °F - 53.6 °F 94% 30.21 in 10.0 mi NNW 4.6 mph - N/A   Overcast
8:58 AM 55.6 °F - 53.2 °F 92% 30.21 in 10.0 mi North 10.4 mph - N/A   Mostly Cloudy
9:13 AM 55.4 °F - 53.6 °F 94% 30.21 in 10.0 mi North 8.1 mph - N/A   Mostly Cloudy
9:38 AM 55.4 °F - 53.6 °F 94% 30.20 in 10.0 mi NNE 8.1 mph - N/A   Overcast
9:48 AM 55.4 °F - 51.8 °F 88% 30.21 in 10.0 mi North 8.1 mph - N/A   Overcast
9:55 AM 55.9 °F - 53.1 °F 90% 30.21 in 10.0 mi North 10.4 mph - N/A   Overcast
10:55 AM 54.7 °F - 52.5 °F 92% 30.23 in 10.0 mi NW 13.8 mph - N/A   Overcast
11:13 AM 53.6 °F - 51.8 °F 94% 30.22 in 10.0 mi NW 11.5 mph - N/A   Overcast
11:25 AM 53.6 °F - 51.8 °F 94% 30.21 in 10.0 mi NNW 13.8 mph - N/A   Overcast
11:52 AM 53.6 °F - 50.0 °F 88% 30.21 in 10.0 mi NNW 13.8 mph - N/A   Overcast
11:55 AM 53.1 °F - 50.0 °F 89% 30.22 in 10.0 mi NNW 10.4 mph - N/A   Overcast
12:43 PM 51.8 °F - 48.2 °F 88% 30.20 in 10.0 mi NNW 12.7 mph - N/A   Overcast
12:55 PM 51.6 °F - 46.6 °F 83% 30.19 in 10.0 mi NNW 15.0 mph 20.7 mph N/A   Overcast
1:30 PM 51.8 °F - 46.4 °F 82% 30.20 in 10.0 mi North 11.5 mph - N/A   Overcast
1:55 PM 51.6 °F - 45.7 °F 80% 30.20 in 10.0 mi NNW 12.7 mph - N/A   Overcast
2:55 PM 49.8 °F - 43.7 °F 79% 30.22 in 10.0 mi NNW 12.7 mph - N/A   Overcast
3:55 PM 48.6 °F - 43.0 °F 81% 30.24 in 10.0 mi NNW 12.7 mph - N/A   Overcast
4:55 PM 47.5 °F - 41.0 °F 78% 30.26 in 10.0 mi NNW 12.7 mph - N/A   Overcast
5:55 PM 46.9 °F - 40.5 °F 78% 30.27 in 10.0 mi North 12.7 mph - N/A   Overcast
6:55 PM 46.0 °F 39.9 °F 38.7 °F 75% 30.29 in 10.0 mi NNW 13.8 mph - N/A   Overcast
7:07 PM 46.4 °F 39.2 °F 39.2 °F 76% 30.29 in 10.0 mi NNW 18.4 mph 23.0 mph N/A   Overcast
7:55 PM 44.8 °F 37.7 °F 36.3 °F 72% 30.32 in 10.0 mi NNW 16.1 mph 19.6 mph N/A   Overcast
8:55 PM 43.9 °F 37.2 °F 35.6 °F 73% 30.32 in 10.0 mi NNW 13.8 mph - N/A   Overcast
9:55 PM 42.8 °F 36.2 °F 34.5 °F 73% 30.34 in 10.0 mi North 12.7 mph - N/A   Overcast
10:55 PM 41.7 °F 33.7 °F 32.2 °F 69% 30.35 in 10.0 mi NNW 16.1 mph 20.7 mph N/A   Overcast
11:30 PM 41.0 °F 33.9 °F 32.0 °F 70% 30.33 in 10.0 mi NNW 12.7 mph 24.2 mph N/A   Overcast
11:44 PM 41.0 °F 32.5 °F 30.2 °F 65% 30.33 in 10.0 mi North 17.3 mph 25.3 mph N/A   Scattered Clouds
11:55 PM 40.3 °F 31.9 °F 30.0 °F 67% 30.34 in 10.0 mi North 16.1 mph 21.9 mph N/A   Scattered Clouds